Weather in Ispravnaya

Russia / Karachay-Cherkess Republic     44°04′07″N   41°36′23″E
temp.,
°C
wind,
m/s
gust,
m/s
humid.,
%
clouds,
%
prec.,
mm/h
press.,
hPa
HPBL,
m
17 august, wed
wed1700:00+17ssw22930 0.0 101418
03:00+15ssw22920 0.0 101419
06:00+15ssw21894 0.0 101315
09:00+23ne01660 0.0 1012432
12:00+28nne22451 0.0 10101674
15:00+28n2245100 0.1 10091773
18:00+23wnw2270100 0.3 101162
21:00+18sw22877 0.8 101211
18 august, thu
thu1800:00+17ssw22920 0.0 101123
03:00+16ssw22930 0.7 101118
06:00+16ssw11923 0.9 101113
09:00+22n217314 0.9 1010595
12:00+27nnw325454 0.1 10091558
15:00+25w236471 2.2 1009309
18:00+23wsw227940 1.6 100939
21:00+17ssw22900 2.3 101019
19 august, fri
fri1900:00+16sw22945 3.0 101020
03:00+15wnw119578 4.9 101112
06:00+15s1192100 0.0 101019
09:00+19s1181100 0.0 1010167
12:00+26ese135662 0.1 10081095
15:00+22nne2575100 5.2 1008168
18:00+15s1199100 19.8 1012223
21:00+15ssw3397100 28.4 1013102
20 august, sat
sat2000:00+14ssw3495100 0.0 101262
03:00+15wsw0092100 0.1 101111
06:00+15s1192100 0.3 101212
09:00+20sw2276100 0.3 1012221
12:00+24n3356100 0.0 10111113
15:00+22n3370100 0.6 1012821
18:00+20nne1185100 4.3 101211
21:00+17ssw229499 8.3 101325
21 august, sun
sun2100:00+16ssw2294100 0.0 101214
03:00+15ssw3394100 0.0 101257
06:00+15s1189100 0.1 101214
09:00+20ene1166100 0.1 1011253
12:00+24ne33546 0.0 1009826
15:00+26ene454423 0.0 10081446
18:00+22nne226391 0.0 100846
21:00+16sw22800 0.0 100912